ONEWEB-0529 (54145 NORAD) Tracking and Keplerian Element Data

This shows tracking and keplerian element data for the satellite.

Feedback or suggestion? Click here.




ElementValue
Catalog54145
NameONEWEB-0529
Epoch Orbit526
Epoch Day325.33334491
Epoch Year2022
RAAN207.3888
Inclination87.4572
Eccentricity0.0013933
Argument of Perigee185.4888
Mean Anonmoly305.6408
Mean Motion14.69150172
Decay Rate-0.01021525
L11 54145U 22138AJ 22325.33334491 -.01021525 00000+0 -18567+0 0 9992
L22 54145 87.4572 207.3888 0013933 185.4888 305.6408 14.69150172 5266



Live tracking and technical data element details for ONEWEB-0529 (NORAD 54145). ONEWEB-0529 can be tracked NOW for your location showing map with azimuth and elevation plus other details from your city location.







IsCatalogInMostPopularTable: catalog: 54145, numindb: 6
Update: records affected: 1



GetName: 54145 ONEWEB-0529

Hit Count: updated at: Sun, 04 Dec 2022 21:06:11 GMT